Weather History for Billings, MT

Change the Weather History Date:

Friday, May 10, 2013

  Actual Average Record
Temperature  
Mean Temperature 57 °F 54 °F  
Max Temperature 71 °F 66 °F 85 °F (1940)
Min Temperature 43 °F 42 °F 25 °F (1967)
Degree Days  
Heating Degree Days 8 12  
Month to date heating degree days 112 130  
Since 1 July heating degree days 6204 6507  
Cooling Degree Days 0 0  
Month to date cooling degree days 0 0  
Year to date cooling degree days 0 1  
Growing Degree Days 10 (Base 50)    
Moisture  
Dew Point 34 °F    
Average Humidity 44    
Maximum Humidity 66    
Minimum Humidity 22    
Precipitation  
Precipitation 0.00 in 0.07 in 1.51 in (2011)
Month to date precipitation 0.08 0.65  
Year to date precipitation 2.24 4.33  
Snow  
Snow 0.00 in 0.10 in 5.70 in (1967)
Month to date snowfall T 1.2  
Since 1 July snowfall 40.4 54.2  
Snow Depth 0.00 in    
Sea Level Pressure  
Sea Level Pressure 30.21 in    
Wind  
Wind Speed 14 mph (NE)    
Max Wind Speed 28 mph    
Max Gust Speed 35 mph    
Visibility 10 miles    
Events      
T = Trace of Precipitation, MM = Missing Value Source: NWS Daily Summary

Daily Weather History Graph

Daily Weather History Graph

Search for Another Location

Airport:

Trip Planner

Search our weather history database for the weather conditions in past years. The results will help you decide how hot, cold, wet, or windy it might be!

Date:

Astronomy

May. 10, 2013 Rise Set
Actual Time 5:48 AM MDT 8:33 PM MDT
Civil Twilight 5:14 AM MDT 9:07 PM MDT
Nautical Twilight 4:30 AM MDT 9:51 PM MDT
Astronomical Twilight 3:40 AM MDT 10:42 PM MDT
Moon 6:14 AM MDT (5/10) 9:27 PM MDT (5/10)
Length of Visible Light 15h 53m
Length of Day
14h 45m
New Moon, 1% of the Moon is Illuminated
May 10
New Moon
May 17
First Quarter
May 24
Full
May 31
Last Quarter
Jun 8
New

Hourly Weather History & Observations

Time (MDT) Temp. Dew Point Humidity Pressure Visibility Wind Dir Wind Speed Gust Speed Precip Events Conditions
12:53 AM 55.0 °F 42.1 °F 62% 30.08 in 10.0 mi SW 6.9 mph - N/A   Partly Cloudy
1:53 AM 53.6 °F 39.2 °F 58% 30.13 in 10.0 mi SW 11.5 mph - N/A   Partly Cloudy
2:53 AM 51.1 °F 37.9 °F 61% 30.10 in 10.0 mi SW 11.5 mph - N/A   Scattered Clouds
3:53 AM 51.1 °F 37.0 °F 59% 30.10 in 10.0 mi WSW 12.7 mph - N/A   Partly Cloudy
4:53 AM 48.9 °F 37.0 °F 64% 30.10 in 10.0 mi SW 15.0 mph - N/A   Partly Cloudy
5:53 AM 48.2 °F 37.4 °F 66% 30.15 in 10.0 mi SW 13.8 mph - N/A   Partly Cloudy
6:53 AM 48.9 °F 37.0 °F 64% 30.13 in 10.0 mi SW 16.1 mph - N/A   Partly Cloudy
7:53 AM 52.0 °F 37.0 °F 57% 30.14 in 10.0 mi SW 16.1 mph - N/A   Partly Cloudy
8:53 AM 57.9 °F 39.0 °F 49% 30.13 in 10.0 mi SSW 13.8 mph - N/A   Partly Cloudy
9:53 AM 64.0 °F 39.9 °F 41% 30.13 in 10.0 mi SW 10.4 mph - N/A   Scattered Clouds
10:42 AM 68.0 °F 39.0 °F 35% 30.22 in 10.0 mi NNE 24.2 mph 29.9 mph N/A   Mostly Cloudy
10:53 AM 68.0 °F 39.2 °F 35% 30.23 in 10.0 mi North 20.7 mph 29.9 mph N/A   Scattered Clouds
11:53 AM 69.1 °F 39.0 °F 33% 30.19 in 10.0 mi NNE 21.9 mph 29.9 mph N/A   Scattered Clouds
12:53 PM 68.0 °F 37.9 °F 33% 30.22 in 10.0 mi NNE 20.7 mph 31.1 mph N/A   Scattered Clouds
1:53 PM 69.1 °F 37.0 °F 31% 30.24 in 10.0 mi NE 19.6 mph 28.8 mph N/A   Partly Cloudy
2:53 PM 69.1 °F 33.1 °F 26% 30.26 in 10.0 mi NE 20.7 mph 32.2 mph N/A   Partly Cloudy
3:53 PM 69.8 °F 28.4 °F 21% 30.30 in 10.0 mi NE 16.1 mph 21.9 mph N/A   Partly Cloudy
4:53 PM 68.0 °F 30.9 °F 25% 30.27 in 10.0 mi ENE 12.7 mph 21.9 mph N/A   Scattered Clouds
5:53 PM 66.0 °F 30.0 °F 26% 30.28 in 10.0 mi ENE 16.1 mph - N/A   Scattered Clouds
6:53 PM 64.9 °F 28.9 °F 26% 30.28 in 10.0 mi ENE 13.8 mph - N/A   Partly Cloudy
7:53 PM 61.0 °F 27.0 °F 27% 30.30 in 10.0 mi ENE 12.7 mph - N/A   Partly Cloudy
8:53 PM 57.9 °F 25.0 °F 28% 30.32 in 10.0 mi ENE 11.5 mph - N/A   Partly Cloudy
9:53 PM 55.0 °F 24.1 °F 30% 30.34 in 10.0 mi ENE 11.5 mph - N/A   Partly Cloudy
10:53 PM 51.1 °F 24.1 °F 35% 30.36 in 10.0 mi NE 8.1 mph - N/A   Clear
11:53 PM 48.0 °F 24.1 °F 39% 30.37 in 10.0 mi NNE 6.9 mph - N/A   Clear